Middlebury State AP, Middlebu, VT

9:11 PM EST on November 14, 2019 (GMT -0500)
Middlebury State AP, Middlebu

Weather History for K6B0 - August, 2019

Change the Weather History Date:

Monday, August 12, 2019

  Actual Average (WUND) Record (WUND)
Temperature  
Mean Temperature 70 °F -  
Max Temperature 80 °F - - (-1)
Min Temperature 59 °F - - (-1)
Cooling Degree Days 4    
Growing Degree Days 20 (Base 50)    
Moisture  
Dew Point 59 °F    
Average Humidity 70    
Maximum Humidity 86    
Minimum Humidity 53    
Precipitation  
Precipitation 0.00 in - - ()
Sea Level Pressure  
Sea Level Pressure 29.88 in    
Wind  
Wind Speed 4 mph ()    
Max Wind Speed 10 mph    
Max Gust Speed 16 mph    
Visibility 10.0 miles    
Events      
Averages and records for this station are not official NWS values.
T = Trace of Precipitation, MM = Missing Value Source: Averaged Metar Reports

Daily Weather History Graph

Daily Weather History Graph

Search for Another Location

Airport or City:

Astronomy

Aug. 12, 2019 Rise Set
Actual Time 5:52 AM EDT 8:01 PM EDT
Civil Twilight 5:20 AM EDT 8:33 PM EDT
Nautical Twilight 4:41 AM EDT 9:11 PM EDT
Astronomical Twilight 3:58 AM EDT 9:54 PM EDT
Moon 6:34 PM EDT (8/12) 2:54 AM EDT (8/12)
Length of Visible Light 15h 12m
Length of Day
14h 08m
Waxing Gibbous, 93% of the Moon is Illuminated
Aug 12
Waxing Gibbous
Aug 15
Full
Aug 23
Last Quarter
Aug 30
New
Sep 5
First Quarter

Hourly Weather History & Observations

Time (EDT) Temp. Heat Index Dew Point Humidity Pressure Visibility Wind Dir Wind Speed Gust Speed Precip Events Conditions
12:17 AM 59.7 °F - 55.4 °F 86% 29.95 in 10.0 mi Calm Calm - N/A   Clear
12:36 AM 59.5 °F - 55.2 °F 86% 29.95 in 10.0 mi Calm Calm - N/A   Clear
12:55 AM 60.8 °F - 54.5 °F 80% 29.94 in 10.0 mi SE 4.6 mph - N/A   Clear
1:18 AM 61.5 °F - 54.5 °F 78% 29.94 in 10.0 mi SSE 3.5 mph - N/A   Clear
1:36 AM 60.1 °F - 55.4 °F 85% 29.94 in 10.0 mi ESE 3.5 mph - N/A   Clear
1:55 AM 61.0 °F - 55.6 °F 82% 29.94 in 10.0 mi SE 4.6 mph - N/A   Clear
1:56 AM 61.2 °F - 55.4 °F 81% 29.94 in 10.0 mi South 4.6 mph - N/A   Clear
2:15 AM 61.7 °F - 54.7 °F 78% 29.94 in 10.0 mi South 3.5 mph - N/A   Clear
2:16 AM 61.5 °F - 54.7 °F 78% 29.94 in 10.0 mi South 3.5 mph - N/A   Clear
2:38 AM 59.7 °F - 55.6 °F 86% 29.93 in 10.0 mi Calm Calm - N/A   Clear
2:57 AM 61.7 °F - 54.9 °F 78% 29.93 in 10.0 mi South 3.5 mph - N/A   Clear
3:35 AM 59.7 °F - 54.0 °F 81% 29.94 in 10.0 mi Calm Calm - N/A   Clear
3:36 AM 59.5 °F - 54.0 °F 82% 29.94 in 10.0 mi Calm Calm - N/A   Clear
3:55 AM 59.9 °F - 53.8 °F 80% 29.94 in 10.0 mi Calm Calm - N/A   Clear
3:59 AM 59.7 °F - 54.0 °F 81% 29.94 in 10.0 mi Calm Calm - N/A   Clear
4:18 AM 60.3 °F - 54.1 °F 80% 29.94 in 10.0 mi South 4.6 mph - N/A   Clear
4:36 AM 60.8 °F - 54.7 °F 80% 29.94 in 10.0 mi SE 3.5 mph - N/A   Clear
4:55 AM 62.2 °F - 54.0 °F 74% 29.94 in 10.0 mi South 4.6 mph - N/A   Clear
5:15 AM 61.7 °F - 53.4 °F 74% 29.94 in 10.0 mi South 5.8 mph - N/A   Clear
5:16 AM 61.7 °F - 53.4 °F 74% 29.94 in 10.0 mi SSE 5.8 mph - N/A   Clear
5:38 AM 63.0 °F - 53.8 °F 72% 29.94 in 10.0 mi SSE 4.6 mph - N/A   Clear
5:56 AM 61.7 °F - 53.8 °F 75% 29.94 in 10.0 mi South 4.6 mph - N/A   Clear
6:16 AM 61.5 °F - 54.0 °F 76% 29.94 in 10.0 mi South 4.6 mph - N/A   Clear
6:35 AM 61.2 °F - 54.7 °F 79% 29.94 in 10.0 mi South 4.6 mph - N/A   Clear
6:36 AM 61.3 °F - 54.7 °F 79% 29.94 in 10.0 mi SSE 4.6 mph - N/A   Clear
6:55 AM 62.2 °F - 54.5 °F 76% 29.94 in 10.0 mi Calm Calm - N/A   Clear
6:59 AM 61.9 °F - 54.9 °F 78% 29.94 in 10.0 mi Calm Calm - N/A   Clear
7:17 AM 62.1 °F - 56.5 °F 82% 29.94 in 10.0 mi South 3.5 mph - N/A   Clear
7:35 AM 62.6 °F - 56.8 °F 81% 29.94 in 10.0 mi South 3.5 mph - N/A   Clear
7:55 AM 64.0 °F - 55.8 °F 74% 29.94 in 10.0 mi SSW 4.6 mph - N/A   Clear
7:56 AM 64.2 °F - 55.6 °F 73% 29.94 in 10.0 mi SSW 4.6 mph - N/A   Clear
8:15 AM 64.8 °F - 57.7 °F 78% 29.94 in 10.0 mi Calm Calm - N/A   Clear
8:39 AM 67.3 °F - 57.0 °F 70% 29.94 in 10.0 mi South 4.6 mph - N/A   Clear
8:56 AM 68.5 °F - 56.7 °F 66% 29.94 in 10.0 mi South 8.1 mph - N/A   Clear
9:16 AM 68.4 °F - 55.9 °F 64% 29.94 in 10.0 mi South 9.2 mph - N/A   Clear
9:35 AM 69.3 °F - 56.3 °F 63% 29.94 in 10.0 mi South 9.2 mph 16.1 mph N/A   Clear
9:36 AM 69.3 °F - 56.3 °F 63% 29.94 in 10.0 mi South 9.2 mph 16.1 mph N/A   Clear
9:55 AM 70.3 °F - 56.7 °F 62% 29.93 in 10.0 mi South 6.9 mph - N/A   Clear
9:59 AM 70.2 °F - 56.5 °F 62% 29.93 in 10.0 mi South 9.2 mph - N/A   Clear
10:18 AM 71.2 °F - 57.2 °F 61% 29.93 in 10.0 mi South 6.9 mph - N/A   Clear
10:35 AM 71.8 °F - 57.6 °F 61% 29.92 in 10.0 mi SSE 8.1 mph - N/A   Clear
10:55 AM 72.9 °F - 58.3 °F 60% 29.92 in 10.0 mi South 8.1 mph - N/A   Clear
10:56 AM 72.9 °F - 58.5 °F 60% 29.92 in 10.0 mi South 8.1 mph - N/A   Clear
11:15 AM 73.4 °F - 59.2 °F 61% 29.91 in 10.0 mi SSW 6.9 mph - N/A   Clear
11:16 AM 73.6 °F - 59.4 °F 61% 29.91 in 10.0 mi South 6.9 mph - N/A   Clear
11:39 AM 74.1 °F - 59.2 °F 59% 29.91 in 10.0 mi South 5.8 mph - N/A   Clear
11:57 AM 75.2 °F - 60.1 °F 59% 29.90 in 10.0 mi South 8.1 mph - N/A   Clear
12:15 PM 76.1 °F - 60.3 °F 58% 29.89 in 10.0 mi SSE 6.9 mph - N/A   Clear
12:16 PM 76.1 °F - 60.4 °F 58% 29.89 in 10.0 mi SSE 6.9 mph - N/A   Clear
12:35 PM 76.6 °F - 60.6 °F 58% 29.88 in 10.0 mi South 5.8 mph - N/A   Clear
12:36 PM 76.6 °F - 60.4 °F 57% 29.88 in 10.0 mi South 5.8 mph - N/A   Clear
12:55 PM 77.5 °F - 60.3 °F 55% 29.88 in 10.0 mi South 9.2 mph - N/A   Clear
12:59 PM 77.5 °F - 60.4 °F 55% 29.87 in 10.0 mi South 8.1 mph - N/A   Clear
1:17 PM 77.2 °F - 59.4 °F 54% 29.87 in 10.0 mi South 5.8 mph - N/A   Scattered Clouds
1:35 PM 78.3 °F - 59.7 °F 53% 29.86 in 10.0 mi South 6.9 mph - N/A   Scattered Clouds
1:55 PM 78.6 °F - 60.4 °F 54% 29.86 in 10.0 mi South 9.2 mph - N/A   Scattered Clouds
1:56 PM 78.6 °F - 60.4 °F 54% 29.86 in 10.0 mi SSW 6.9 mph - N/A   Scattered Clouds
2:15 PM 78.4 °F - 61.2 °F 55% 29.85 in 10.0 mi South 6.9 mph - N/A   Scattered Clouds
2:16 PM 78.4 °F - 61.2 °F 55% 29.85 in 10.0 mi South 5.8 mph - N/A   Scattered Clouds
2:38 PM 78.6 °F - 60.8 °F 54% 29.84 in 10.0 mi South 3.5 mph - N/A   Clear
2:57 PM 79.9 °F - 62.2 °F 55% 29.83 in 10.0 mi South 9.2 mph - N/A   Clear
3:35 PM 78.1 °F - 62.8 °F 59% 29.83 in 10.0 mi SE 3.5 mph - N/A   Overcast
3:36 PM 78.1 °F - 63.5 °F 61% 29.83 in 10.0 mi SE 3.5 mph - N/A   Overcast
3:55 PM 77.4 °F - 64.4 °F 64% 29.83 in 10.0 mi South 4.6 mph - N/A   Overcast
3:59 PM 77.9 °F - 64.2 °F 63% 29.83 in 10.0 mi SSE 4.6 mph - N/A   Overcast
4:17 PM 78.6 °F - 64.0 °F 61% 29.82 in 10.0 mi South 5.8 mph - N/A   Mostly Cloudy
4:35 PM 80.6 °F 82.2 °F 64.2 °F 57% 29.82 in 10.0 mi South 8.1 mph - N/A   Mostly Cloudy
4:55 PM 78.8 °F - 63.5 °F 59% 29.81 in 10.0 mi South 4.6 mph - N/A   Overcast
4:56 PM 78.6 °F - 63.9 °F 60% 29.81 in 10.0 mi South 5.8 mph - N/A   Overcast
5:15 PM 80.4 °F 81.6 °F 62.6 °F 54% 29.80 in 10.0 mi South 10.4 mph - N/A   Scattered Clouds
5:16 PM 80.4 °F 81.6 °F 62.6 °F 54% 29.80 in 10.0 mi South 10.4 mph - N/A   Scattered Clouds
5:39 PM 79.7 °F - 62.8 °F 56% 29.80 in 10.0 mi South 10.4 mph - N/A   Clear
5:56 PM 79.0 °F - 62.4 °F 57% 29.80 in 10.0 mi SSW 5.8 mph - N/A   Clear
6:16 PM 77.0 °F - 64.0 °F 64% 29.80 in 10.0 mi SSE 3.5 mph - N/A   Clear
6:35 PM 75.2 °F - 64.0 °F 68% 29.80 in 10.0 mi SSE 3.5 mph - N/A   Clear
6:36 PM 75.0 °F - 64.0 °F 69% 29.80 in 10.0 mi SSE 4.6 mph - N/A   Clear
6:55 PM 73.9 °F - 64.0 °F 71% 29.80 in 10.0 mi SSE 3.5 mph - N/A   Clear
6:59 PM 73.8 °F - 64.0 °F 72% 29.80 in 10.0 mi Calm Calm - N/A   Clear
7:17 PM 73.4 °F - 63.7 °F 71% 29.80 in 10.0 mi Calm Calm - N/A   Scattered Clouds
7:35 PM 72.9 °F - 63.1 °F 71% 29.80 in 10.0 mi SE 3.5 mph - N/A   Scattered Clouds
7:55 PM 70.2 °F - 63.1 °F 78% 29.80 in 10.0 mi Calm Calm - N/A   Mostly Cloudy
7:56 PM 70.0 °F - 63.1 °F 79% 29.80 in 10.0 mi SE 3.5 mph - N/A   Mostly Cloudy
8:15 PM 70.5 °F - 61.7 °F 74% 29.80 in 10.0 mi Calm Calm - N/A   Mostly Cloudy
8:16 PM 70.5 °F - 61.7 °F 74% 29.80 in 10.0 mi Calm Calm - N/A   Scattered Clouds
8:38 PM 68.9 °F - 62.2 °F 79% 29.81 in 10.0 mi Calm Calm - N/A   Scattered Clouds
8:56 PM 68.2 °F - 62.1 °F 81% 29.81 in 10.0 mi Calm Calm - N/A   Scattered Clouds
9:15 PM 68.5 °F - 62.4 °F 81% 29.81 in 10.0 mi Calm Calm - N/A   Clear
9:35 PM 70.0 °F - 61.3 °F 74% 29.81 in 10.0 mi Calm Calm - N/A   Scattered Clouds
9:55 PM 69.1 °F - 60.8 °F 75% 29.81 in 10.0 mi Calm Calm - N/A   Scattered Clouds
9:59 PM 68.9 °F - 61.3 °F 77% 29.81 in 10.0 mi Calm Calm - N/A   Scattered Clouds
10:17 PM 68.5 °F - 61.3 °F 78% 29.81 in 10.0 mi SE 3.5 mph - N/A   Scattered Clouds
10:35 PM 69.1 °F - 61.7 °F 77% 29.81 in 10.0 mi SSE 3.5 mph - N/A   Mostly Cloudy
10:55 PM 69.8 °F - 61.5 °F 75% 29.81 in 10.0 mi Calm Calm - N/A   Overcast
10:56 PM 70.0 °F - 61.5 °F 74% 29.81 in 10.0 mi Calm Calm - N/A   Overcast
11:15 PM 70.2 °F - 61.9 °F 75% 29.80 in 10.0 mi Calm Calm - N/A   Overcast
11:16 PM 70.0 °F - 61.9 °F 75% 29.80 in 10.0 mi Calm Calm - N/A   Overcast
11:38 PM 68.4 °F - 62.4 °F 81% 29.80 in 10.0 mi Calm Calm - N/A   Overcast
11:56 PM 68.9 °F - 62.1 °F 79% 29.80 in 10.0 mi Calm Calm - N/A   Overcast